Theta_e
321 317 316 317 320 321 322 322 321 321 321 321 322 323 323 322 320 316 310 308 315 317 314 312 311 311 310 310 309 308 308 307 308 307 307 307 306 306 306 306 305 305 305
325 321 320 320 322 323 323 322 322 322 322 322 322 320 320 319 319 315 311 306 314 314 312 310 310 310 310 309 308 308 307 306 306 306 307 305 306 305 305 304 304 303 302
325 322 322 321 323 323 324 323 323 322 323 322 321 320 319 318 317 315 309 304 312 310 308 307 307 308 308 308 308 307 306 307 305 306 305 305 304 304 303 302 302 302 301
325 322 322 322 323 324 324 324 323 322 322 321 320 320 319 318 316 315 308 303 306 306 302 303 303 305 306 307 306 306 305 305 305 304 305 303 303 303 302 302 301 301 300
324 321 320 321 323 324 324 324 323 322 321 320 320 319 319 317 317 315 306 302 301 302 299 295 291 300 304 305 305 305 304 304 303 303 302 303 302 302 301 301 300 299 299
323 321 321 321 323 325 325 324 323 323 321 320 318 319 317 316 315 309 304 300 300 299 298 295 291 291 299 302 303 304 303 303 302 302 302 301 301 301 300 299 299 298 298
321 321 323 323 324 325 325 325 324 324 321 319 318 314 312 308 305 303 301 300 299 298 298 294 291 290 291 297 301 302 302 302 302 301 300 300 300 300 299 299 298 297 297
321 322 323 324 324 325 325 325 324 324 322 320 319 316 313 308 302 300 300 299 298 298 296 294 292 290 290 292 296 299 301 301 300 299 300 299 299 298 298 298 297 296 296
321 322 323 323 323 324 325 325 324 324 323 320 319 318 316 315 303 298 298 299 298 297 296 294 293 290 290 290 291 296 297 298 298 298 298 298 298 298 297 297 296 295 295
322 322 323 324 323 323 324 324 324 323 323 320 320 319 317 317 309 302 296 297 298 297 296 295 294 291 290 290 290 293 295 295 296 296 296 296 296 296 296 296 295 294 294
323 322 322 324 324 324 323 324 325 323 322 322 320 319 317 312 312 304 299 294 295 297 296 295 295 292 290 289 289 291 293 294 294 294 294 294 294 295 295 294 294 293 293
324 323 323 323 324 324 325 324 324 324 322 322 321 320 319 316 309 306 300 294 295 296 296 295 294 293 290 289 289 289 293 294 293 292 292 292 292 293 293 293 292 292 292
325 325 325 324 323 324 325 326 326 325 323 322 321 321 321 319 318 315 309 296 294 295 295 294 294 293 291 289 289 288 292 293 293 292 291 291 291 291 291 291 291 291 290
325 325 325 325 325 324 325 326 326 326 325 324 322 321 321 320 320 319 316 305 292 293 293 295 294 292 291 290 289 288 290 292 292 292 291 290 290 290 290 290 290 289 289
324 324 324 324 324 325 325 325 326 326 325 325 323 322 322 321 320 320 320 317 311 294 293 293 294 292 291 290 289 288 288 290 291 291 290 289 288 288 288 288 288 288 288
323 324 324 324 324 324 324 325 324 324 323 324 323 322 322 321 321 320 317 316 312 310 307 295 293 293 291 290 289 288 287 288 289 289 288 288 288 287 287 287 287 287 286
324 324 324 324 325 325 325 324 323 323 323 323 322 321 321 321 320 320 319 315 309 305 301 291 292 292 291 290 288 288 287 287 286 287 286 287 287 287 286 286 286 286 285
323 323 324 325 325 325 325 325 325 324 324 323 323 322 321 318 319 319 315 313 309 303 296 290 290 290 290 289 288 288 288 287 287 286 286 286 286 286 286 286 286 285 284
324 324 324 325 326 326 326 326 326 325 325 325 324 322 321 319 318 316 312 308 299 294 294 292 289 289 288 288 288 287 287 287 287 287 286 286 287 286 286 286 286 285 284
327 326 326 326 327 327 327 326 326 325 324 323 322 319 319 317 316 313 308 302 299 295 293 293 290 289 288 287 288 287 287 287 287 286 286 286 286 286 286 286 285 285 283
324 326 326 326 325 325 324 324 323 322 319 318 318 315 314 312 310 307 305 302 297 293 292 291 289 288 288 287 287 287 287 288 287 287 286 285 285 285 285 285 284 284 283
317 320 322 322 322 321 319 317 316 315 314 313 312 311 309 307 305 303 300 298 298 294 290 289 289 289 290 288 288 288 287 286 285 286 285 284 285 285 284 284 284 283 283
312 312 312 313 313 312 311 313 312 310 308 307 305 304 303 302 300 298 295 295 295 294 292 290 291 291 289 289 289 287 287 288 286 286 284 284 284 285 284 284 284 283 283
305 305 305 305 305 306 307 308 308 307 306 305 303 301 300 299 298 295 293 292 291 290 290 290 290 290 290 289 288 288 289 288 286 285 284 283 283 283 284 283 283 283 284
304 304 304 304 304 303 302 301 301 301 300 299 298 298 297 296 295 293 292 291 290 290 290 289 291 290 288 288 288 288 286 285 284 284 283 283 282 282 283 284 283 283 284
302 302 301 301 300 300 300 300 298 296 295 295 294 294 293 293 292 291 291 291 289 289 289 290 289 288 287 287 287 288 287 286 284 282 284 283 283 283 283 283 282 282 283
Wind_Speed
11 11 11 12 10 9 8 7 6 6 5 4 3 2 2 2 3 4 5 7 11 9 9 9 9 9 10 10 10 11 13 14 14 16 16 17 18 19 20 21 21 23 23
13 13 13 13 12 10 9 8 6 6 6 5 5 5 4 5 5 4 4 7 11 11 10 8 9 9 9 9 10 11 12 13 14 15 15 16 17 19 20 21 22 23 24
16 16 16 15 14 12 11 10 9 9 9 8 5 6 6 6 6 4 4 5 11 9 10 8 8 9 8 8 9 10 11 12 13 13 14 16 17 17 19 20 21 22 23
19 20 19 18 15 14 13 12 11 10 9 7 6 6 8 7 7 6 5 5 8 7 4 7 7 8 8 8 9 9 10 11 12 13 14 15 16 16 17 19 20 21 21
22 22 21 18 17 17 16 15 14 12 10 8 7 7 7 9 10 9 8 7 7 7 5 3 2 7 7 8 7 8 9 10 10 11 12 13 14 15 16 17 18 19 20
27 25 23 22 21 20 19 17 16 14 11 10 7 7 8 11 12 10 9 8 7 7 6 4 0 1 6 7 7 7 7 8 9 10 10 11 12 13 14 16 17 18 19
28 28 26 24 23 23 22 20 19 18 16 12 9 6 6 7 9 10 10 10 9 9 8 6 3 2 1 5 7 6 6 6 7 7 9 9 10 12 13 15 16 18 19
30 31 30 29 27 27 25 24 22 21 19 17 8 7 3 4 9 12 13 12 11 10 10 8 6 3 2 3 6 6 5 6 6 6 6 7 8 10 12 14 15 16 18
34 34 33 33 31 30 29 28 26 25 24 21 23 8 2 4 5 11 17 16 16 15 13 11 9 7 5 5 5 9 7 6 5 5 5 6 7 9 10 12 14 15 17
37 36 36 35 34 33 33 33 30 29 28 27 21 29 14 9 3 3 10 21 21 21 19 17 15 12 9 8 8 9 8 6 5 5 4 5 6 8 10 11 13 15 16
39 39 39 38 37 38 38 37 35 33 32 33 29 16 23 12 13 4 3 10 23 27 26 23 20 17 14 11 10 9 8 7 6 5 5 4 5 7 8 10 11 13 14
41 41 41 41 41 41 41 40 39 37 36 37 37 33 25 15 15 8 3 6 13 22 31 28 26 23 18 15 13 14 14 9 7 6 4 4 4 6 7 8 10 12 13
40 43 44 45 46 45 43 42 41 41 40 41 42 40 40 37 32 30 22 8 8 18 22 32 31 27 23 19 16 15 16 13 10 7 5 3 2 3 5 7 9 10 11
39 39 41 43 47 46 45 45 45 44 43 45 46 44 39 41 42 40 33 20 2 8 14 15 35 32 27 21 17 16 17 16 11 9 7 5 2 1 4 6 8 9 10
39 39 40 41 41 43 45 46 47 48 46 47 46 46 43 43 44 46 46 40 23 5 9 22 16 34 31 25 21 19 17 18 14 12 9 6 3 1 1 4 7 8 9
37 37 39 40 39 40 42 43 41 43 40 44 42 39 40 44 46 45 46 45 37 25 8 25 32 21 34 28 20 17 16 18 18 14 14 11 8 5 3 3 4 7 8
38 38 40 39 40 41 41 38 39 40 38 41 39 39 42 45 46 46 45 44 40 35 19 7 19 22 30 30 25 20 17 17 18 17 15 13 11 9 7 5 5 7 8
38 38 39 39 40 39 38 37 39 39 39 40 43 43 46 41 45 46 43 45 43 41 25 12 17 17 21 28 23 20 18 17 18 16 14 14 13 12 10 9 9 9 8
37 38 38 38 39 39 39 39 41 41 43 44 43 43 46 43 45 44 45 38 27 14 16 7 2 16 13 24 22 20 20 18 18 17 16 15 16 15 14 12 12 11 10
34 34 36 37 38 37 37 38 40 41 41 41 41 38 41 39 41 37 34 30 28 24 19 16 17 19 19 24 25 25 23 21 18 17 18 17 19 20 18 16 16 15 14
23 25 27 28 29 28 30 32 34 32 31 30 31 31 32 33 33 30 31 31 25 24 22 20 14 14 17 16 26 24 25 18 16 18 19 20 20 24 25 21 19 19 17
14 16 17 19 20 18 17 18 18 19 21 21 24 25 24 26 26 24 24 23 23 25 22 17 15 18 21 25 28 25 23 12 5 12 13 19 15 23 25 27 24 22 19
5 5 6 7 8 9 11 13 14 14 15 16 16 17 17 17 16 17 16 17 19 22 24 31 24 20 25 29 26 26 23 15 10 9 9 14 14 22 22 24 26 27 22
4 5 6 8 8 9 11 11 12 11 11 11 12 12 12 12 11 14 15 16 17 21 23 22 19 20 22 23 27 25 21 17 15 14 10 7 11 15 14 17 19 20 19
4 4 5 6 7 9 10 10 11 10 10 11 11 11 11 11 11 16 18 20 21 19 20 17 17 17 18 19 21 21 17 15 9 9 14 12 10 10 13 16 16 17 17
6 6 7 8 8 9 10 9 6 6 7 8 9 9 10 9 9 14 19 21 22 22 21 19 17 17 18 20 20 23 19 19 10 5 13 12 9 7 5 7 11 17 19
Wind_Direction
206 203 201 201 201 206 206 198 185 181 178 176 178 224 215 190 167 157 136 122 120 116 103 90 80 73 69 64 61 56 55 53 55 54 52 52 42 36 36 32 30 25 25
220 213 212 214 216 215 213 210 209 200 190 187 229 257 268 270 258 178 146 135 138 132 104 92 80 73 69 61 58 56 56 59 57 55 54 45 46 39 39 33 30 25 21
225 224 224 221 217 217 219 222 221 219 220 240 252 244 256 254 203 192 161 154 171 161 103 89 76 74 70 66 62 58 57 59 51 53 49 51 43 41 37 35 25 25 25
227 227 226 226 225 224 226 227 229 227 238 236 229 228 263 236 221 215 195 188 191 197 153 105 81 69 67 62 60 60 61 57 59 55 54 42 44 41 38 37 30 27 26
231 231 229 229 227 226 225 228 228 231 232 225 218 212 254 224 224 237 209 206 211 222 224 204 71 97 76 71 65 62 64 61 56 55 56 51 45 40 38 35 33 29 25
230 231 231 230 228 228 229 230 229 232 233 225 208 200 206 205 206 209 213 213 218 229 236 251 304 97 99 80 75 70 69 68 63 61 54 53 50 44 38 33 31 26 24
231 231 233 233 231 233 232 233 231 228 224 214 179 139 144 191 202 209 211 221 224 229 233 239 254 276 208 120 89 85 79 76 70 61 62 50 49 48 40 34 30 26 23
234 233 233 233 232 233 232 232 232 230 229 218 198 163 159 188 219 220 218 226 232 234 237 240 246 258 219 178 131 115 111 109 101 83 67 63 53 44 39 32 28 25 23
234 235 236 236 236 235 235 234 234 233 231 227 218 200 154 210 159 211 219 223 229 233 236 239 241 244 234 211 191 159 146 133 120 108 91 74 55 53 40 33 27 26 23
237 237 237 239 239 239 238 237 235 237 233 233 228 230 237 196 180 192 220 221 226 230 231 232 233 234 232 221 205 187 165 152 139 119 95 78 67 48 40 32 29 24 20
240 240 239 239 240 240 241 241 238 238 237 235 232 226 227 211 199 155 196 214 223 228 228 229 227 227 228 224 212 193 165 187 171 145 130 90 66 55 44 33 29 26 19
244 243 242 242 243 243 244 244 242 243 241 239 238 235 227 213 205 187 179 201 212 225 225 223 227 224 223 222 215 201 177 198 196 182 148 112 65 58 43 33 28 25 18
241 244 243 243 243 244 245 246 246 245 243 242 242 240 243 241 237 227 218 193 202 214 218 224 226 224 220 219 218 203 192 187 206 195 183 152 91 55 42 35 29 22 16
238 242 246 246 246 246 247 247 248 250 247 246 245 244 242 246 241 236 227 203 199 216 212 219 221 221 219 218 218 208 202 193 203 201 207 200 173 31 24 26 22 17 15
240 243 246 249 248 248 249 249 248 248 247 248 245 246 245 248 249 246 242 235 213 184 224 224 208 219 217 213 214 214 207 202 192 202 206 212 210 243 327 15 12 5 9
240 241 245 247 250 251 251 249 244 248 244 248 245 243 244 247 248 251 246 242 232 226 239 211 211 210 210 211 209 210 214 208 213 218 225 232 224 233 265 323 346 345 0
245 245 249 249 250 250 252 248 247 247 246 249 247 246 247 250 253 253 249 246 235 229 227 200 214 205 202 205 201 205 214 219 220 228 230 234 232 239 252 277 302 320 342
249 250 251 251 253 252 251 247 247 246 245 246 250 250 253 250 256 258 253 244 234 232 214 157 178 197 202 201 204 203 211 222 231 234 234 242 240 244 249 259 278 291 314
252 252 251 251 253 255 254 254 254 252 251 254 254 251 256 254 255 254 248 238 232 215 196 179 61 174 194 199 197 212 217 221 235 235 233 237 244 247 250 252 261 268 281
254 254 255 256 257 258 259 259 258 257 253 256 261 257 260 257 262 258 250 241 233 210 197 170 170 178 189 200 203 209 220 225 235 244 247 247 246 245 246 250 255 262 270
256 256 255 255 253 251 254 255 254 256 258 263 264 269 268 268 268 260 255 244 224 198 183 176 157 164 181 183 204 216 226 232 241 251 259 256 255 252 249 249 249 256 266
260 257 258 263 264 260 267 266 272 273 273 276 276 277 277 277 274 270 255 244 237 207 178 172 180 164 195 205 211 214 213 208 258 253 257 263 256 254 251 254 253 257 261
260 262 267 272 279 285 289 292 294 292 290 293 296 294 293 287 283 272 241 228 223 205 208 202 195 204 200 219 221 210 214 213 217 250 241 274 265 265 261 260 259 261 249
4 2 346 337 333 326 320 311 308 301 291 290 289 285 284 280 277 248 221 199 198 199 203 211 214 220 234 236 219 219 227 228 239 257 246 263 286 275 277 267 254 244 237
39 6 349 336 330 334 326 329 317 303 298 294 294 289 279 265 249 225 210 193 192 202 206 207 225 233 231 224 211 216 211 198 224 253 234 241 274 283 283 273 258 239 232
23 11 10 2 349 350 344 339 330 335 319 311 311 304 292 274 245 209 205 200 189 192 203 217 216 215 209 209 211 218 220 212 196 231 235 207 249 252 281 276 262 240 234